Hourly Weather Roundup
Issued by NWS Central Illinois

Home | Current Version | Previous Version | Text Only | Print | Product List | Glossary On
Versions: 1 2 3 4 5 6 7 8 9 10 11 12 13 14 15 16 17 18 19 20 21 22 23 24 25 26 27 28 29 30 31 32 33 34 35 36 37 38 39 40 41 42 43 44 45 46 47 48 49 50
000
NZUS43 KILX 010610
HWRILX

AREA WEATHER ROUNDUP
NATIONAL WEATHER SERVICE, LINCOLN IL
100 AM CDT WED JUN 01 2016


CITY           SKY/WX    TMP DP  RH WIND       PRES   REMARKS
BLOOMINGTON    CLOUDY    67  64  90 E8        29.95F
6HR MIN TEMP:  67; 6HR MAX TEMP:  74;

CHAMPAIGN      PTCLDY    66  63  90 E7        29.94F
6HR MIN TEMP:  66; 6HR MAX TEMP:  70;

DANVILLE       CLOUDY    70  59  68 E6        29.92F
6HR MIN TEMP:  69; 6HR MAX TEMP:  77;

DECATUR        CLOUDY    67  62  84 E3        29.94F
6HR MIN TEMP:  66; 6HR MAX TEMP:  72;

EFFINGHAM      RAIN      70  66  89 W10G18    29.97R
FLORA          CLOUDY    73  67  83 CALM      29.94S
6HR MIN TEMP:  73; 6HR MAX TEMP:  79;

GALESBURG      CLOUDY    68  62  79 NW12G17   29.94R
JACKSONVILLE   MOCLDY    71  65  81 SE12      29.93R
6HR MIN TEMP:  70; 6HR MAX TEMP:  80;

LACON          CLOUDY    67  60  78 SE6       29.92S
6HR MIN TEMP:  67; 6HR MAX TEMP:  72;

LAWRENCEVILLE  CLOUDY    72  65  78 CALM      29.93F
6HR MIN TEMP:  72; 6HR MAX TEMP:  83;

LITCHFIELD     CLOUDY    68  65  90 E5        29.94S
$$


CITY           SKY/WX    TMP DP  RH WIND       PRES   REMARKS
LINCOLN        CLOUDY    69  64  83 CALM      29.93F
6HR MIN TEMP:  68; 6HR MAX TEMP:  76;

MACOMB         CLOUDY    71  64  78 SE5       29.94S
MATTOON        MOCLDY    70  61  73 CALM      29.93F
6HR MIN TEMP:  69; 6HR MAX TEMP:  79;

MT CARMEL AP   CLOUDY    72  63  73 CALM      29.93F
6HR MIN TEMP:  72; 6HR MAX TEMP:  82;

OLNEY-NOBLE AP CLOUDY    72  68  88 CALM      29.94F
PARIS          CLOUDY    69  65  87 CALM      29.95F
6HR MIN TEMP:  68; 6HR MAX TEMP:  83;

PEORIA         CLOUDY    69  61  75 CALM      29.93S
6HR MIN TEMP:  69; 6HR MAX TEMP:  77; 6HR PCP:  0.04;

PONTIAC        CLOUDY    68  65  90 E7        29.95S
RANTOUL        CLOUDY    69  65  87 CALM      29.94F
6HR MIN TEMP:  67; 6HR MAX TEMP:  70;

ROBINSON       CLOUDY    68  63  83 CALM      29.94F
6HR MIN TEMP:  67; 6HR MAX TEMP:  79;

SPRINGFIELD    CLOUDY    68  64  87 SE10      29.94S
6HR MIN TEMP:  68; 6HR MAX TEMP:  77;

TAYLORVILLE    CLOUDY    69  64  84 CALM      29.95R
$$

...REGIONAL REPORTS...


CITY           SKY/WX    TMP DP  RH WIND       PRES   REMARKS
CHICAGO O`HARE CLOUDY    64  59  83 CALM      29.95F
KANKAKEE       CLOUDY    66  61  85 E5        29.95F
MOLINE         TSTM      66  62  87 VRB6      29.93F FOG
MOUNT STERLING CLOUDY    68  65  90 SE3       29.92R
MOUNT VERNON   NOT AVBL
PITTSFIELD     CLOUDY    70  67  92 S3        29.93S
QUINCY         CLOUDY    70  65  84 CALM      29.92R
ROCKFORD       CLOUDY    67  61  81 S7        29.95F
$$


CITY           SKY/WX    TMP DP  RH WIND       PRES   REMARKS
BURLINGTON     CLOUDY    66  65  96 CALM      29.91F
CEDAR RAPIDS   CLOUDY    64  64 100 W5        29.91S
DES MOINES     PTCLDY    65  62  90 W3        29.93F
KIRKSVILLE     CLOUDY    66  64  93 NW3       29.95R
OTTUMWA        MOCLDY    64  62  93 CALM      29.93R
ST LOUIS       CLOUDY    76  64  66 S5        29.94R
$$


CITY           SKY/WX    TMP DP  RH WIND       PRES   REMARKS
TERRE HAUTE    CLOUDY    69  61  75 CALM      29.94F
EVANSVILLE     CLOUDY    72  65  78 CALM      29.93F
INDIANAPOLIS   PTCLDY    71  58  63 NE5       29.95F
LAFAYETTE      CLOUDY    67  59  75 E6        29.95S
MADISON        CLOUDY    65  61  87 CALM      29.94R
MILWAUKEE      CLOUDY    62  56  80 SE6       29.95F
$$






USA.gov is the U.S. government's official web portal to all federal, state and local government web resources and services.